Location: Auttagershofen
(48.1940°N, 10.0237°E)
Time: 22:16:00
(UTC+00:00)

Lacrosse 5 rocket - Pass Details

Date: 11 April 2026
Orbit: 390 x 471 km, 57.0° (Epoch: 19 May)

Event Time Altitude Azimuth Distance (km) Brightness Sun altitude
Exits shadow 03:15:44 16° 191° (SSW) 1,187 2.7 -13.6°
Drops below altitude 10° 03:16:44 10° 178° (S) 1,480 3.3 -13.5°
Sets 03:19:08 0° 162° (SSE) 2,355 4.4 -13.1°
